Location: Ladrillo (historical)
(32.8195°N, 117.2231°W)
Time: 07:33:57
(UTC+00:00)

FO-99 - Pass Details

Date: 21 April 2021
Orbit: 472 x 506 km, 97.2° (Epoch: 09 May)

Event Time Altitude Azimuth Distance (km) Brightness Sun altitude
Exits shadow 03:12:53 16° 108° (ESE) 1,398 ? -10.8°
Maximum altitude 03:14:36 21° 72° (ENE) 1,177 ? -11.1°
Drops below altitude 10° 03:17:26 10° 22° (NNE) 1,721 ? -11.7°
Sets 03:19:52 0° 6° (N) 2,608 ? -12.1°
